TimeEDT,TemperatureF,Dew PointF,Humidity,Sea Level PressureIn,VisibilityMPH,Wind Direction,Wind SpeedMPH,Gust SpeedMPH,PrecipitationIn,Events,Conditions,WindDirDegrees,DateUTC
12:15 AM,80.6,78.8,94,29.91,8.0,SW,13.8,-,N/A,,Scattered Clouds,220,2013-09-02 04:15:00
12:58 AM,80.1,77.0,90,29.91,7.0,SW,15.0,-,N/A,,Clear,230,2013-09-02 04:58:00
1:58 AM,80.1,77.0,90,29.91,7.0,SW,15.0,21.9,N/A,,Scattered Clouds,230,2013-09-02 05:58:00
2:20 AM,80.6,77.0,89,29.89,7.0,SW,13.8,-,N/A,,Mostly Cloudy,230,2013-09-02 06:20:00
2:35 AM,80.6,77.0,89,29.88,7.0,SW,15.0,20.7,N/A,,Mostly Cloudy,230,2013-09-02 06:35:00
2:53 AM,80.6,77.0,89,29.87,7.0,SW,15.0,-,N/A,,Scattered Clouds,220,2013-09-02 06:53:00
2:58 AM,80.1,77.0,90,29.88,7.0,SW,13.8,-,N/A,,Mostly Cloudy,220,2013-09-02 06:58:00
3:58 AM,80.1,77.0,90,29.87,7.0,SW,18.4,23.0,N/A,,Mostly Cloudy,230,2013-09-02 07:58:00
4:58 AM,80.1,77.0,90,29.87,7.0,SW,16.1,23.0,N/A,,Mostly Cloudy,230,2013-09-02 08:58:00
5:05 AM,80.6,77.0,89,29.87,7.0,SW,17.3,23.0,N/A,,Mostly Cloudy,220,2013-09-02 09:05:00
5:58 AM,80.1,77.0,90,29.88,7.0,SW,13.8,-,N/A,,Mostly Cloudy,230,2013-09-02 09:58:00
6:35 AM,80.6,78.8,94,29.88,8.0,SW,12.7,-,N/A,,Overcast,230,2013-09-02 10:35:00
6:44 AM,80.6,78.8,94,29.87,7.0,SW,15.0,-,N/A,,Overcast,230,2013-09-02 10:44:00
6:58 AM,78.1,75.0,90,29.90,8.0,West,20.7,25.3,N/A,,Overcast,280,2013-09-02 10:58:00
7:08 AM,75.2,71.6,89,29.90,6.0,WNW,20.7,28.8,0.00,Rain,Light Rain,300,2013-09-02 11:08:00
7:19 AM,75.2,73.4,94,29.90,2.5,WNW,20.7,31.1,0.02,Rain,Rain,300,2013-09-02 11:19:00
7:30 AM,75.2,73.4,94,29.93,1.0,WNW,16.1,27.6,0.11,Rain,Heavy Rain,290,2013-09-02 11:30:00
7:33 AM,73.4,73.4,100,29.94,0.8,WNW,17.3,-,0.18,Rain,Heavy Rain,290,2013-09-02 11:33:00
7:50 AM,73.4,71.6,94,29.94,1.0,West,6.9,-,0.45,Rain,Heavy Rain,280,2013-09-02 11:50:00
7:58 AM,73.0,72.0,96,29.94,1.2,NNW,12.7,18.4,0.53,Rain,Heavy Rain,340,2013-09-02 11:58:00
8:03 AM,73.4,71.6,94,29.93,2.0,North,15.0,-,0.03,Rain,Heavy Rain,360,2013-09-02 12:03:00
8:35 AM,71.6,71.6,100,29.93,1.5,NW,12.7,25.3,0.29,Rain,Heavy Rain,310,2013-09-02 12:35:00
8:47 AM,73.4,71.6,94,29.92,2.5,South,3.5,-,0.34,Rain,Light Rain,190,2013-09-02 12:47:00
8:58 AM,73.0,72.0,96,29.91,2.5,Calm,Calm,-,0.36,Rain,Light Rain,0,2013-09-02 12:58:00
9:07 AM,73.4,71.6,94,29.91,5.0,Calm,Calm,-,0.01,Rain,Light Rain,0,2013-09-02 13:07:00
9:42 AM,73.4,73.4,100,29.92,1.8,South,4.6,-,0.04,Rain,Heavy Rain,170,2013-09-02 13:42:00
9:49 AM,75.2,73.4,94,29.91,3.0,SSW,5.8,-,0.05,Rain,Light Rain,200,2013-09-02 13:49:00
9:58 AM,75.9,73.9,94,29.92,7.0,SSW,8.1,-,0.05,Rain,Light Rain,200,2013-09-02 13:58:00
10:58 AM,82.0,77.0,85,29.92,7.0,SSW,12.7,-,0.00,,Clear,200,2013-09-02 14:58:00
11:16 AM,80.6,77.0,89,29.92,7.0,SSW,8.1,-,N/A,,Mostly Cloudy,200,2013-09-02 15:16:00
11:32 AM,82.4,78.8,89,29.92,7.0,SSW,11.5,-,N/A,,Overcast,200,2013-09-02 15:32:00
11:58 AM,82.9,79.0,88,29.92,7.0,SW,15.0,-,N/A,,Mostly Cloudy,220,2013-09-02 15:58:00
12:13 PM,84.2,80.6,89,29.91,7.0,SW,13.8,-,N/A,,Mostly Cloudy,220,2013-09-02 16:13:00
12:25 PM,84.2,80.6,89,29.91,7.0,SSW,12.7,20.7,N/A,,Scattered Clouds,210,2013-09-02 16:25:00
12:27 PM,84.2,80.6,89,29.91,7.0,SSW,16.1,20.7,N/A,,Mostly Cloudy,210,2013-09-02 16:27:00
12:46 PM,84.2,80.6,89,29.90,7.0,SW,15.0,-,N/A,,Mostly Cloudy,220,2013-09-02 16:46:00
12:53 PM,84.2,80.6,89,29.90,8.0,SW,15.0,-,N/A,,Scattered Clouds,220,2013-09-02 16:53:00
12:58 PM,84.0,80.1,88,29.90,8.0,SW,16.1,23.0,N/A,,Scattered Clouds,220,2013-09-02 16:58:00
1:58 PM,84.0,80.1,88,29.88,7.0,SW,16.1,23.0,N/A,,Scattered Clouds,220,2013-09-02 17:58:00
2:15 PM,84.2,80.6,89,29.88,7.0,SW,17.3,-,N/A,,Mostly Cloudy,220,2013-09-02 18:15:00
2:58 PM,84.0,80.1,88,29.87,7.0,SSW,15.0,-,N/A,,Mostly Cloudy,210,2013-09-02 18:58:00
3:36 PM,84.2,80.6,89,29.85,6.0,SSW,16.1,-,N/A,,Mostly Cloudy,210,2013-09-02 19:36:00
3:58 PM,84.0,79.0,85,29.85,7.0,SW,15.0,-,N/A,,Mostly Cloudy,220,2013-09-02 19:58:00
4:58 PM,84.0,79.0,85,29.85,7.0,SW,12.7,-,N/A,,Scattered Clouds,230,2013-09-02 20:58:00
5:58 PM,82.0,78.1,88,29.84,7.0,SSW,12.7,-,N/A,,Clear,210,2013-09-02 21:58:00
6:58 PM,81.0,77.0,88,29.83,8.0,SW,15.0,19.6,N/A,,Clear,220,2013-09-02 22:58:00
7:58 PM,81.0,77.0,88,29.84,10.0,SW,16.1,21.9,N/A,,Scattered Clouds,220,2013-09-02 23:58:00
8:58 PM,81.0,77.0,88,29.86,9.0,SW,17.3,-,N/A,,Overcast,230,2013-09-03 00:58:00
9:58 PM,81.0,78.1,91,29.86,7.0,SW,18.4,25.3,N/A,,Mostly Cloudy,220,2013-09-03 01:58:00
10:58 PM,81.0,78.1,91,29.87,7.0,SW,12.7,-,N/A,,Clear,230,2013-09-03 02:58:00
11:37 PM,80.6,78.8,94,29.86,7.0,SW,9.2,-,0.00,,Mostly Cloudy,230,2013-09-03 03:37:00
11:58 PM,81.0,79.0,94,29.87,7.0,SW,11.5,20.7,0.00,,Overcast,230,2013-09-03 03:58:00